Location: Observatoire du C�gep de Trois-Rivi�res � Champlain
(46.4753°N, 72.3231°W)
Time: 18:46:42
(UTC-05:00)

Tiangong 1 - Visible Passes

Search period start: 15 December 2017 00:00
Search period end: 25 December 2017 00:00
Orbit: 275 x 301 km, 42.8° (Epoch: 15 December)

Date Brightness Start Highest point End Pass type
(mag) Time Alt. Az. Time Alt. Az. Time Alt. Az.
21 Dec 3.4 05:47:35 10° SSW 05:49:09 15° SSE 05:50:43 10° ESE visible
22 Dec 2.8 05:51:17 15° SSW 05:52:27 21° SSE 05:54:28 10° ESE visible
23 Dec 2.3 05:54:45 21° SSW 05:55:42 27° S 05:57:54 10° ESE visible
24 Dec 1.9 05:58:01 25° SW 05:58:51 32° S 06:01:09 10° ESE visible
